Domov               UVHVVR             MKGP            O straneh              
ZDRAVSTVENO VARSTVO RASTLIN
  MREŽA AGROMET. POSTAJ
 ► PROGNOSTIČNA OBVESTILA
AGROMETEOROLOŠKI PODATKI -
ARSO
OBVLADOVANJE TVEGANJ ZARADI
NEUGODNIH VREMENSKIH RAZMER
  ► NARAVNE NESREČE
  ► SUŠA/MOČA
  ► NAMAKANJE
  ► ŽLED (gozdarstvo)
KARTOGRAFSKI PRIKAZI
SPLETNE POVEZAVE
PROJEKTI IN PUBLIKACIJE

AGROMETEOROLOŠKA MREŽA: VREMENSKE POSTAJE IN FENOLOŠKA OPAZOVANJA

Pregled podatkov za lokacijo Virštanj, meteorološka postaja 39749

Pregled senzorjev na lokaciji

ID Ime Zadnja
vrednost
Datum
zadnje
spremembe
Tip
senzorja
3124 Temperatura 2 m (°C) 7,03 °C 11.12.2017 10:00 50YA
3125 Relativna vlaga 2 m (% RH) 82,56 % RH 11.12.2017 10:00 50YA
3127 Padavine (mm) 0,2 mm 11.12.2017 10:00 Rain-O-Matic

Pregled podatkov zadnjih 24 ur

Zap.
št.
Datum in čas Virštanj
Padavine Relativna
vlaga
2
m
Temperatura
2
m
0 11.12.2017 10:00 0,2 82,56 7,03
1 11.12.2017 09:30 0,2 87,81 5,59
2 11.12.2017 09:00 0,4 89,01 5,15
3 11.12.2017 08:30 0,2 91,89 4,15
4 11.12.2017 08:00 0,4 90,01 4,27
5 11.12.2017 07:30 0,2 93,19 3,69
6 11.12.2017 07:00 0,4 91,11 4
7 11.12.2017 06:30 0,4 93,55 3,61
8 11.12.2017 06:00 0,2 94,26 3
9 11.12.2017 05:30 0,4 94,85 2,74
10 11.12.2017 05:00 0,2 94,65 2,27
11 11.12.2017 04:30 0,2 94,31 2,69
12 11.12.2017 04:00 0,4 96,46 1,93
13 11.12.2017 03:30 0,2 96,58 1,81
14 11.12.2017 03:00 0,2 97,05 1,68
15 11.12.2017 02:30 0,2 96,39 1,59
16 11.12.2017 02:00 0,4 96,21 1,81
17 11.12.2017 01:30 0,2 96,65 1,54
18 11.12.2017 01:00 0,2 97,51 1,2
19 11.12.2017 00:30 0,2 96,7 1,25
20 11.12.2017 00:00 0,2 96,41 1,37
21 10.12.2017 23:30 0,4 94,65 1,44
22 10.12.2017 23:00 0,4 91,97 1,93
23 10.12.2017 22:30 0,4 90,96 1,95
24 10.12.2017 22:00 0,6 86,5 2,54
25 10.12.2017 21:30 1 85,96 2,69
26 10.12.2017 21:00 1 86,62 2,49
27 10.12.2017 20:30 0,8 87,11 2,27
28 10.12.2017 20:00 0,6 85,69 2,22
29 10.12.2017 19:30 0,2 83,83 2,22
30 10.12.2017 19:00 0,2 81,81 2,25
31 10.12.2017 18:30 0,2 81,54 2,12
32 10.12.2017 18:00 0 81,64 2,03
33 10.12.2017 17:30 0,2 79,37 1,83
34 10.12.2017 17:00 0 76,48 1,83
35 10.12.2017 16:30 0,2 73,58 2,08
36 10.12.2017 16:00 0 74,04 1,86
37 10.12.2017 15:30 0,2 77,12 1,39
38 10.12.2017 15:00 0,2 76,9 1,34
39 10.12.2017 14:30 0,2 75,95 1,42
40 10.12.2017 14:00 0,2 75,34 1,49
41 10.12.2017 13:30 0,2 75,12 1,56
42 10.12.2017 13:00 0,4 74,99 1,61
43 10.12.2017 12:30 0,2 83,54 0,34
44 10.12.2017 12:00 0,2 95,24 -2,47
45 10.12.2017 11:30 0 97,88 -5,32
46 10.12.2017 11:00 0 96,92 -6,54
© 2011 Ministrstvo za kmetijstvo, gozdarstvo in prehrano. Vse pravice pridržane.